, TX

(GMT )
Ingleside

Weather History for KTFP - January, 2013

Change the Weather History Date:

Tuesday, January 1, 2013

  Actual Average Record
Temperature  
Mean Temperature 61 °F -  
Max Temperature 71 °F - - ()
Min Temperature 51 °F - - ()
Degree Days  
Heating Degree Days 4    
Growing Degree Days 11 (Base 50)    
Moisture  
Dew Point 57 °F    
Average Humidity 84    
Maximum Humidity 94    
Minimum Humidity 71    
Precipitation  
Precipitation 0.02 in - - ()
Sea Level Pressure  
Sea Level Pressure 30.04 in    
Wind  
Wind Speed 11 mph (North)    
Max Wind Speed 24 mph    
Max Gust Speed 31 mph    
Visibility 9 miles    
Events Rain    
Averages and records for this station are not official NWS values.
T = Trace of Precipitation, MM = Missing Value Source: NWS Daily Summary

Daily Weather History Graph

Daily Weather History Graph

Search for Another Location

Airport or City:

Trip Planner

Search our weather history database for the weather conditions in past years. The results will help you decide how hot, cold, wet, or windy it might be!

Date:

Astronomy

Jan. 01, 2013 Rise Set
Actual Time 7:20 AM CST 5:45 PM CST
Civil Twilight 6:54 AM CST 6:10 PM CST
Nautical Twilight 6:25 AM CST 6:39 PM CST
Astronomical Twilight 5:56 AM CST 7:08 PM CST
Moon 9:52 PM CST (1/1) 9:54 AM CST (1/1)
Length of Visible Light 11h 16m
Length of Day
10h 24m
Waning Gibbous, 83% of the Moon is Illuminated
Jan 1
Waning Gibbous
Jan 4
Last Quarter
Jan 11
New
Jan 18
First Quarter
Jan 26
Full

Hourly Weather History & Observations

Time (CST) Temp. Dew Point Humidity Pressure Visibility Wind Dir Wind Speed Gust Speed Precip Events Conditions
12:15 AM 70.0 °F 67.1 °F 91% 29.92 in 10.0 mi South 9.2 mph - N/A   Clear
12:35 AM 70.7 °F 67.6 °F 90% 29.93 in 10.0 mi South 5.8 mph - N/A   Clear
1:15 AM 71.6 °F 68.2 °F 89% 29.93 in 10.0 mi South 6.9 mph - N/A   Mostly Cloudy
1:35 AM 71.2 °F 68.0 °F 89% 29.93 in 10.0 mi South 5.8 mph - N/A   Light Drizzle
1:55 AM 70.5 °F 68.0 °F 92% 29.92 in 7.0 mi SSW 3.5 mph - N/A   Drizzle
2:15 AM 69.8 °F 67.5 °F 92% 29.92 in 7.0 mi South 3.5 mph - N/A   Drizzle
2:35 AM 69.1 °F 67.1 °F 93% 29.92 in 5.0 mi South 4.6 mph - N/A Rain Light Rain
2:55 AM 69.1 °F 67.3 °F 94% 29.90 in 7.0 mi SSE 12.7 mph - N/A   Light Drizzle
3:15 AM 69.8 °F 68.0 °F 94% 29.89 in 7.0 mi South 10.4 mph - N/A Rain Light Rain
3:35 AM 70.2 °F 68.2 °F 93% 29.88 in 7.0 mi South 9.2 mph - N/A   Drizzle
3:55 AM 70.3 °F 68.0 °F 92% 29.88 in 10.0 mi South 9.2 mph - N/A   Light Drizzle
4:15 AM 70.7 °F 68.2 °F 92% 29.87 in 10.0 mi South 12.7 mph 18.4 mph N/A   Light Drizzle
4:35 AM 70.9 °F 67.8 °F 90% 29.87 in 10.0 mi SSW 11.5 mph - N/A   Scattered Clouds
4:55 AM 71.1 °F 67.8 °F 89% 29.87 in 10.0 mi South 12.7 mph 20.7 mph N/A   Scattered Clouds
5:15 AM 70.9 °F 67.6 °F 89% 29.88 in 10.0 mi SSW 9.2 mph - N/A   Light Drizzle
5:35 AM 69.4 °F 66.6 °F 91% 29.89 in 7.0 mi West 11.5 mph - 0.01 in   Light Drizzle
5:55 AM 68.9 °F 66.4 °F 92% 29.91 in 7.0 mi West 6.9 mph - 0.01 in   Drizzle
6:15 AM 69.3 °F 67.1 °F 93% 29.91 in 7.0 mi WNW 6.9 mph - N/A   Light Drizzle
6:35 AM 69.4 °F 67.3 °F 93% 29.92 in 7.0 mi WNW 6.9 mph - N/A   Light Drizzle
7:15 AM 68.9 °F 66.9 °F 93% 29.93 in 5.0 mi NW 4.6 mph - N/A   Mostly Cloudy
7:35 AM 68.7 °F 66.7 °F 93% 29.95 in 5.0 mi NW 5.8 mph - N/A Rain Light Rain
7:55 AM 68.5 °F 66.7 °F 94% 29.96 in 5.0 mi NNW 6.9 mph - N/A   Light Drizzle
8:15 AM 68.9 °F 67.1 °F 94% 29.96 in 5.0 mi NNW 5.8 mph - N/A   Overcast
8:35 AM 68.7 °F 66.9 °F 94% 29.98 in 4.0 mi North 21.9 mph 28.8 mph N/A   Overcast
8:55 AM 65.5 °F 63.3 °F 93% 30.01 in 5.0 mi North 21.9 mph 27.6 mph N/A   Light Drizzle
9:15 AM 61.9 °F 59.5 °F 92% 30.03 in 10.0 mi North 20.7 mph 28.8 mph 0.01 in Rain Light Rain
9:35 AM 59.9 °F 57.7 °F 93% 30.05 in 7.0 mi North 17.3 mph 28.8 mph 0.01 in Rain Light Rain
9:55 AM 58.8 °F 56.7 °F 93% 30.05 in 10.0 mi North 21.9 mph 31.1 mph 0.01 in Rain Light Rain
10:15 AM 58.5 °F 56.1 °F 92% 30.06 in 10.0 mi North 24.2 mph 31.1 mph N/A   Overcast
10:35 AM 58.3 °F 55.4 °F 90% 30.07 in 10.0 mi NNE 18.4 mph 27.6 mph N/A   Overcast
10:55 AM 58.6 °F 55.8 °F 90% 30.07 in 10.0 mi NNE 15.0 mph - N/A   Overcast
11:15 AM 59.0 °F 55.6 °F 88% 30.07 in 10.0 mi North 15.0 mph 21.9 mph N/A   Overcast
11:35 AM 58.8 °F 55.2 °F 88% 30.07 in 10.0 mi NNE 15.0 mph - N/A   Overcast
11:55 AM 59.5 °F 55.4 °F 86% 30.07 in 10.0 mi NNE 17.3 mph 23.0 mph N/A   Overcast
12:15 PM 59.9 °F 55.2 °F 84% 30.07 in 10.0 mi North 19.6 mph - N/A   Overcast
12:35 PM 59.4 °F 54.5 °F 84% 30.06 in 10.0 mi North 15.0 mph 21.9 mph N/A   Overcast
12:55 PM 59.0 °F 54.1 °F 84% 30.07 in 10.0 mi NNE 16.1 mph - N/A   Overcast
1:15 PM 58.8 °F 54.0 °F 84% 30.06 in 10.0 mi North 16.1 mph - N/A   Overcast
1:35 PM 59.0 °F 54.0 °F 83% 30.07 in 10.0 mi North 12.7 mph - N/A   Overcast
1:55 PM 59.0 °F 53.8 °F 83% 30.07 in 10.0 mi North 13.8 mph 18.4 mph N/A   Overcast
2:15 PM 59.5 °F 53.4 °F 80% 30.05 in 10.0 mi North 17.3 mph 23.0 mph N/A   Mostly Cloudy
2:35 PM 60.3 °F 53.4 °F 78% 30.07 in 10.0 mi North 16.1 mph 20.7 mph N/A   Mostly Cloudy
3:15 PM 59.5 °F 52.0 °F 76% 30.07 in 10.0 mi North 18.4 mph - N/A   Overcast
3:35 PM 59.4 °F 51.1 °F 74% 30.09 in 10.0 mi North 17.3 mph 21.9 mph N/A   Overcast
3:55 PM 59.0 °F 50.5 °F 73% 30.08 in 10.0 mi North 15.0 mph - N/A   Overcast
4:15 PM 58.5 °F 50.0 °F 73% 30.07 in 10.0 mi North 15.0 mph 19.6 mph N/A   Overcast
4:35 PM 58.5 °F 49.8 °F 73% 30.10 in 10.0 mi North 13.8 mph - N/A   Overcast
4:55 PM 58.8 °F 49.6 °F 72% 30.10 in 10.0 mi North 9.2 mph 18.4 mph N/A   Mostly Cloudy
5:15 PM 58.6 °F 49.6 °F 72% 30.10 in 10.0 mi North 13.8 mph - N/A   Overcast
5:35 PM 58.1 °F 48.7 °F 71% 30.09 in 10.0 mi NNE 9.2 mph - N/A   Scattered Clouds
5:55 PM 57.6 °F 49.6 °F 75% 30.10 in 10.0 mi North 8.1 mph - N/A   Clear
6:15 PM 57.4 °F 49.8 °F 76% 30.11 in 10.0 mi North 10.4 mph - N/A   Mostly Cloudy
6:35 PM 57.2 °F 49.5 °F 75% 30.12 in 10.0 mi North 11.5 mph - N/A   Scattered Clouds
6:55 PM 57.2 °F 49.3 °F 75% 30.14 in 10.0 mi North 9.2 mph - N/A   Mostly Cloudy
7:15 PM 56.7 °F 49.6 °F 77% 30.13 in 10.0 mi North 10.4 mph - N/A   Overcast
7:35 PM 56.5 °F 49.3 °F 77% 30.14 in 10.0 mi North 11.5 mph - N/A   Scattered Clouds
7:55 PM 56.1 °F 49.1 °F 77% 30.15 in 10.0 mi North 9.2 mph - N/A   Scattered Clouds
8:15 PM 56.3 °F 48.7 °F 76% 30.15 in 10.0 mi North 10.4 mph - N/A   Scattered Clouds
8:35 PM 55.8 °F 48.6 °F 77% 30.16 in 10.0 mi North 11.5 mph - N/A   Scattered Clouds
8:55 PM 55.4 °F 48.2 °F 77% 30.17 in 10.0 mi North 11.5 mph - N/A   Scattered Clouds
9:15 PM 54.9 °F 47.7 °F 77% 30.17 in 10.0 mi North 16.1 mph - N/A   Clear
9:35 PM 53.8 °F 47.1 °F 78% 30.18 in 10.0 mi North 15.0 mph 18.4 mph N/A   Clear
9:55 PM 52.9 °F 46.4 °F 79% 30.18 in 10.0 mi North 16.1 mph 20.7 mph N/A   Clear
10:15 PM 52.2 °F 45.7 °F 79% 30.16 in 10.0 mi North 17.3 mph 23.0 mph N/A   Clear
10:35 PM 51.8 °F 45.1 °F 78% 30.18 in 10.0 mi North 15.0 mph - N/A   Clear
10:55 PM 51.4 °F 44.6 °F 77% 30.17 in 10.0 mi North 11.5 mph - N/A   Clear
11:15 PM 51.1 °F 44.8 °F 79% 30.18 in 10.0 mi North 11.5 mph 19.6 mph N/A   Scattered Clouds
11:35 PM 51.1 °F 44.6 °F 78% 30.18 in 10.0 mi North 13.8 mph - N/A   Mostly Cloudy
11:55 PM 51.1 °F 44.2 °F 77% 30.17 in 10.0 mi North 12.7 mph - N/A   Overcast